Location: Gerlach
(40.6516°N, 119.3568°W)
Time: 10:22:52
(UTC-07:00)

TIGRISAT - Visible Passes

Search period start: 08 October 2024 00:00
Search period end: 18 October 2024 00:00
Orbit: 591 x 666 km, 97.7° (Epoch: 07 October)

Date Brightness Start Highest point End Pass type
(mag) Time Alt. Az. Time Alt. Az. Time Alt. Az.
08 Oct ? 05:01:59 12° NNW 05:01:59 12° NNW 05:02:24 10° NNW visible
09 Oct ? 03:45:05 11° NNE 03:45:05 11° NNE 03:45:14 10° NNE visible
10 Oct ? 04:05:32 10° N 04:05:32 10° N 04:05:38 10° N visible
10 Oct ? 19:00:28 10° NW 19:02:11 12° WNW 19:03:52 10° W visible
14 Oct ? 18:42:29 10° NNW 18:45:25 17° WNW 18:48:20 10° WSW visible
15 Oct ? 19:03:47 10° NW 19:04:57 11° WNW 19:06:06 10° WNW visible
